TimeAKST,TemperatureF,Dew PointF,Humidity,Sea Level PressureIn,VisibilityMPH,Wind Direction,Wind SpeedMPH,Gust SpeedMPH,PrecipitationIn,Events,Conditions,WindDirDegrees,DateUTC
12:53 AM,-0.9,-4.0,87,29.68,7.0,East,20.7,-,N/A,,Clear,90,2013-03-09 09:53:00
1:17 AM,-0.4,-4.0,85,29.69,10.0,East,12.7,-,N/A,,Partly Cloudy,100,2013-03-09 10:17:00
1:53 AM,-2.0,-5.1,87,29.70,10.0,East,11.5,-,N/A,,Clear,100,2013-03-09 10:53:00
3:53 AM,-0.9,-4.0,87,29.70,10.0,ENE,13.8,-,N/A,,Clear,70,2013-03-09 12:53:00
4:53 AM,-0.0,-2.9,88,29.70,10.0,ENE,16.1,-,N/A,,Clear,70,2013-03-09 13:53:00
5:53 AM,1.0,-2.0,87,29.71,10.0,East,11.5,-,N/A,,Clear,80,2013-03-09 14:53:00
6:53 AM,-0.0,-2.0,91,29.73,10.0,ESE,6.9,-,N/A,,Clear,110,2013-03-09 15:53:00
7:53 AM,-0.0,-2.9,88,29.74,8.0,East,4.6,-,0.00,,Unknown,100,2013-03-09 16:53:00
8:06 AM,-0.4,-2.2,92,29.74,5.0,East,5.8,-,0.00,,Overcast,90,2013-03-09 17:06:00
8:53 AM,-2.0,-5.1,87,29.75,3.0,ENE,8.1,-,0.00,,Overcast,70,2013-03-09 17:53:00
9:06 AM,-0.4,-4.0,85,29.74,2.5,ENE,8.1,-,0.00,Snow,Light Snow,70,2013-03-09 18:06:00
9:13 AM,-0.4,-2.2,92,29.74,1.8,ENE,6.9,-,0.00,Snow,Light Snow,60,2013-03-09 18:13:00
9:46 AM,-0.4,-2.2,92,29.74,2.0,ENE,9.2,-,0.00,Snow,Light Snow,60,2013-03-09 18:46:00
9:53 AM,1.0,-0.9,91,29.75,2.0,NE,9.2,-,0.00,Snow,Light Snow,50,2013-03-09 18:53:00
10:53 AM,6.1,3.9,91,29.76,3.0,ENE,9.2,-,0.00,Snow,Light Snow,60,2013-03-09 19:53:00
11:26 AM,6.8,5.0,92,29.77,2.5,ENE,8.1,-,0.00,Snow,Light Snow,60,2013-03-09 20:26:00
11:53 AM,7.0,5.0,92,29.79,2.5,NE,10.4,-,0.00,Snow,Light Snow,50,2013-03-09 20:53:00
12:13 PM,6.8,5.0,92,29.79,3.0,ENE,11.5,-,0.00,Snow,Light Snow,60,2013-03-09 21:13:00
12:44 PM,8.6,6.8,92,29.79,3.0,ENE,13.8,-,0.00,Snow,Light Snow,60,2013-03-09 21:44:00
12:53 PM,8.1,6.1,92,29.80,3.0,ENE,13.8,-,0.00,Snow,Light Snow,60,2013-03-09 21:53:00
1:53 PM,8.1,5.0,87,29.81,6.0,ENE,18.4,-,0.00,Snow,Blowing Snow,60,2013-03-09 22:53:00
2:53 PM,7.0,3.9,87,29.82,10.0,ENE,17.3,-,0.00,,Overcast,70,2013-03-09 23:53:00
3:32 PM,6.8,3.2,85,29.83,10.0,ENE,12.7,-,N/A,,Overcast,60,2013-03-10 00:32:00
3:53 PM,6.1,3.0,87,29.83,10.0,ENE,17.3,-,N/A,,Overcast,60,2013-03-10 00:53:00
4:53 PM,5.0,1.9,87,29.86,10.0,ENE,16.1,-,N/A,,Mostly Cloudy,70,2013-03-10 01:53:00
5:53 PM,5.0,1.9,87,29.86,10.0,ENE,16.1,-,N/A,,Mostly Cloudy,70,2013-03-10 02:53:00
6:53 PM,3.0,1.0,91,29.88,10.0,ENE,15.0,-,N/A,,Overcast,60,2013-03-10 03:53:00
7:53 PM,1.9,-0.9,88,29.90,10.0,ENE,13.8,-,N/A,,Scattered Clouds,60,2013-03-10 04:53:00
8:53 PM,1.0,-2.0,87,29.92,10.0,NE,13.8,-,N/A,,Partly Cloudy,50,2013-03-10 05:53:00
9:53 PM,-0.0,-2.9,88,29.94,10.0,ENE,13.8,-,N/A,,Mostly Cloudy,60,2013-03-10 06:53:00
10:53 PM,-0.0,-2.9,88,29.97,10.0,ENE,13.8,-,N/A,,Overcast,60,2013-03-10 07:53:00
11:40 PM,1.4,-2.2,85,29.99,10.0,ENE,13.8,-,N/A,,Mostly Cloudy,60,2013-03-10 08:40:00
11:53 PM,1.0,-2.0,87,30.00,10.0,ENE,12.7,-,N/A,,Mostly Cloudy,60,2013-03-10 08:53:00